CW2377 Weather Reports


time (UTC)temp
C
wind
direction
speed
KPH
gust
KPH
rain 1hr
cm
rain 24hr
cm
rain mn
cm
humidity
%
barometer
mb
20260504060204 13 209 0.0 0.0 0.00 0.00 0.00 66 1004.5
20260504050704 14 209 0.0 0.0 0.00 0.00 0.00 64 1004.6
20260504050204 14 209 0.0 0.0 0.00 0.00 0.00 64 1004.5
20260504045703 14 209 0.0 0.0 0.00 0.00 0.00 64 1004.5
20260504045203 14 209 0.0 0.0 0.00 0.00 0.00 63 1004.5
20260504044704 14 209 0.0 0.0 0.00 0.00 0.00 63 1004.5
20260504044205 15 209 0.0 0.0 0.00 0.00 0.00 62 1004.5
20260504043704 15 209 0.0 0.0 0.00 0.00 0.00 63 1004.5
20260504043203 14 209 0.0 0.0 0.00 0.00 0.00 63 1004.5
20260504042703 14 209 0.0 0.0 0.00 0.00 0.00 63 1004.5
20260504042204 14 209 0.0 0.0 0.00 0.00 0.00 63 1004.5
20260504041703 14 209 0.0 0.0 0.00 0.00 0.00 63 1004.5
20260504041204 14 209 0.0 0.0 0.00 0.00 0.00 63 1004.5
20260504040203 14 209 0.0 0.0 0.00 0.00 0.00 64 1004.6
20260504035704 14 209 0.0 0.0 0.00 0.00 0.00 64 1004.6
20260504035203 14 209 0.0 0.0 0.00 0.00 0.00 63 1004.6
20260504034203 14 209 0.0 0.0 0.00 0.00 0.00 64 1004.7
20260504033704 15 209 0.0 0.0 0.00 0.00 0.00 64 1004.7
20260504033204 15 209 0.0 0.0 0.00 0.00 0.00 64 1004.8
20260504032703 15 209 0.0 0.0 0.00 0.00 0.00 63 1004.8
20260504032203 15 209 0.0 0.0 0.00 0.00 0.00 64 1004.8
20260504031704 15 209 0.0 0.0 0.00 0.00 0.00 63 1004.9
20260504031205 15 209 0.0 0.0 0.00 0.00 0.00 62 1004.9
20260504030704 15 209 0.0 0.0 0.00 0.00 0.00 62 1005.0
20260504030203 15 209 0.0 0.0 0.00 0.00 0.00 61 1005.0
20260504025703 15 209 0.0 0.0 0.00 0.00 0.00 60 1005.0
20260504025204 15 209 0.0 0.0 0.00 0.00 0.00 60 1005.0
20260504024704 15 209 0.0 0.0 0.00 0.00 0.00 59 1005.0
20260504024204 15 209 0.0 0.0 0.00 0.00 0.00 59 1004.9
20260504023704 15 209 0.0 0.0 0.00 0.00 0.00 58 1005.0
20260504022703 15 209 0.0 0.0 0.00 0.00 0.00 59 1004.9
20260504022204 15 209 0.0 0.0 0.00 0.00 0.00 58 1004.9
20260504021704 15 209 0.0 0.0 0.00 0.00 0.00 57 1004.9
20260504021203 15 209 0.0 0.0 0.00 0.00 0.00 58 1004.8
20260504020703 15 209 0.0 0.0 0.00 0.00 0.00 58 1004.8
20260504020204 15 209 0.0 0.0 0.00 0.00 0.00 58 1004.7
20260504015704 15 209 0.0 0.0 0.00 0.00 0.00 59 1004.7
20260504014703 15 209 0.0 0.0 0.00 0.00 0.00 59 1004.6
20260504014204 15 209 0.0 0.0 0.00 0.00 0.00 59 1004.7
20260504013704 15 209 0.0 0.0 0.00 0.00 0.00 58 1004.6
20260504013203 16 209 0.0 0.0 0.00 0.00 0.00 56 1004.5
20260504012204 16 209 0.0 0.0 0.00 0.00 0.00 54 1004.4
20260504011203 17 209 0.0 0.0 0.00 0.00 0.00 52 1004.3
20260504010704 17 209 0.0 0.0 0.00 0.00 0.00 51 1004.3
20260504010204 17 209 0.0 0.0 0.00 0.00 0.00 51 1004.2
20260504005704 17 209 0.0 0.0 0.00 0.00 0.00 50 1004.2
20260504005204 17 209 0.0 0.0 0.00 0.00 0.00 50 1004.2
20260504004704 17 209 0.0 0.0 0.00 0.00 0.00 49 1004.2
20260504004204 18 209 0.0 0.0 0.00 0.00 0.00 49 1004.2
20260504003704 18 209 0.0 0.0 0.00 0.00 0.00 48 1004.3
20260504002704 18 209 0.0 0.0 0.00 0.00 0.00 48 1004.3
20260504002203 18 209 0.0 0.0 0.00 0.00 0.00 47 1004.2
20260504001703 18 209 0.0 0.0 0.00 0.00 0.00 47 1004.2
20260504001204 18 209 0.0 0.0 0.00 0.00 0.00 47 1004.2
20260504000204 18 209 0.0 0.0 0.00 0.00 0.00 46 1004.3
20260503235704 18 209 0.0 0.0 0.00 0.00 0.00 45 1004.2
20260503235204 18 209 0.0 0.0 0.00 0.00 0.00 45 1004.3
20260503234704 19 209 0.0 0.0 0.00 0.00 0.00 46 1004.2
20260503233703 19 209 0.0 0.0 0.00 0.00 0.00 44 1004.3
20260503233204 19 209 0.0 0.0 0.00 0.00 0.00 44 1004.3
20260503232703 19 209 0.0 0.0 0.00 0.00 0.00 43 1004.3
20260503232203 19 209 0.0 0.0 0.00 0.00 0.00 43 1004.4
20260503231704 19 209 0.0 0.0 0.00 0.00 0.00 43 1004.5
20260503230703 20 209 0.0 0.0 0.00 0.00 0.00 44 1004.4
20260503230203 20 209 0.0 0.0 0.00 0.00 0.00 44 1004.4
20260503225704 20 209 0.0 0.0 0.00 0.00 0.00 44 1004.5
20260503225203 19 209 1.6 19.3 0.00 0.00 0.00 42 1004.5
20260503224204 19 354 0.0 0.0 0.00 0.00 0.00 45 1004.5
20260503223703 19 354 0.0 0.0 0.00 0.00 0.00 44 1004.5
20260503222704 19 354 0.0 0.0 0.00 0.00 0.00 44 1004.7
20260503221703 19 354 0.0 0.0 0.00 0.00 0.00 44 1004.6
20260503220704 18 354 1.6 8.0 0.00 0.00 0.00 43 1004.7
20260503220204 19 0 0.0 0.0 0.00 0.00 0.00 46 1004.8
20260503215203 19 0 0.0 0.0 0.00 0.00 0.00 42 1004.9
20260503214704 19 0 0.0 0.0 0.00 0.00 0.00 43 1005.0
20260503214204 19 0 0.0 0.0 0.00 0.00 0.00 43 1005.1
20260503213705 19 0 0.0 8.0 0.00 0.00 0.00 41 1005.2
20260503212704 19 346 1.6 12.9 0.00 0.00 0.00 43 1005.3
20260503212203 19 325 0.0 0.0 0.00 0.00 0.00 42 1005.4
20260503211703 19 325 0.0 11.3 0.00 0.00 0.00 44 1005.4
20260503211204 19 71 0.0 11.3 0.00 0.00 0.00 42 1005.5
20260503210703 19 73 0.0 0.0 0.00 0.00 0.00 43 1005.6
20260503210203 20 73 0.0 8.0 0.00 0.00 0.00 44 1005.7
20260503205703 20 100 0.0 8.0 0.00 0.00 0.00 42 1005.8
20260503205203 20 100 0.0 8.0 0.00 0.00 0.00 39 1005.9
20260503204704 20 0 0.0 4.8 0.00 0.00 0.00 41 1005.9
20260503204204 19 0 0.0 0.0 0.00 0.00 0.00 43 1006.2
20260503203703 18 0 0.0 1.6 0.00 0.00 0.00 44 1006.1
20260503203203 19 0 0.0 8.0 0.00 0.00 0.00 42 1006.2
20260503202704 19 0 0.0 32.2 0.00 0.00 0.00 40 1006.3
20260503202204 19 0 3.2 29.0 0.00 0.00 0.00 41 1006.5
20260503201703 19 0 1.6 14.5 0.00 0.00 0.00 43 1006.5
20260503201203 19 133 0.0 0.0 0.00 0.00 0.00 46 1006.6
20260503200704 19 133 0.0 12.9 0.00 0.00 0.00 47 1006.8
20260503200203 18 133 0.0 12.9 0.00 0.00 0.00 49 1007.0
20260503195204 18 335 0.0 0.0 0.00 0.00 0.00 49 1007.2
20260503194703 18 335 0.0 0.0 0.00 0.00 0.00 50 1007.5
20260503194203 17 335 0.0 0.0 0.00 0.00 0.00 48 1007.5
20260503193703 18 335 0.0 4.8 0.00 0.00 0.00 48 1007.7
20260503193203 18 358 1.6 4.8 0.00 0.00 0.00 47 1007.7
20260503192704 18 355 0.0 11.3 0.00 0.00 0.00 50 1007.6
20260503192204 17 0 0.0 0.0 0.00 0.00 0.00 51 1007.6
20260503191703 17 0 1.6 11.3 0.00 0.00 0.00 52 1007.6
20260503190204 16 227 0.0 4.8 0.00 0.00 0.00 50 1007.7
20260503185703 16 227 0.0 14.5 0.00 0.00 0.00 51 1007.7
20260503184704 16 0 0.0 3.2 0.00 0.00 0.00 50 1007.8
20260503184203 16 0 3.2 33.8 0.00 0.00 0.00 49 1007.8
20260503183703 17 213 0.0 22.5 0.00 0.00 0.00 49 1007.9
20260503183204 17 137 0.0 0.0 0.00 0.00 0.00 50 1007.9
20260503182204 16 0 0.0 0.0 0.00 0.00 0.00 53 1008.1
20260503181703 16 0 0.0 25.7 0.00 0.00 0.00 54 1008.3
20260503180703 16 358 0.0 14.5 0.00 0.00 0.00 54 1008.5
20260503180204 15 333 0.0 0.0 0.00 0.00 0.00 56 1008.6
20260503175705 15 333 1.6 9.7 0.00 0.00 0.00 55 1008.8
20260503175204 15 0 0.0 0.0 0.00 0.00 0.00 57 1009.0
20260503174704 15 0 0.0 0.0 0.00 0.00 0.00 56 1009.1
20260503174204 15 0 0.0 11.3 0.00 0.00 0.00 54 1009.3
20260503173704 15 279 1.6 16.1 0.00 0.00 0.00 55 1009.4
20260503173203 15 0 0.0 14.5 0.00 0.00 0.00 55 1009.6
20260503172204 15 182 3.2 24.1 0.00 0.00 0.00 56 1009.8
20260503171203 14 0 0.0 0.0 0.00 0.00 0.00 61 1010.1
20260503170703 13 0 0.0 20.9 0.00 0.00 0.00 64 1010.2
20260503170204 13 76 0.0 12.9 0.00 0.00 0.00 65 1010.4
20260503160204 12 352 0.0 0.0 0.00 0.00 0.00 70 1011.5
20260503150704 14 75 0.0 0.0 0.00 0.00 0.00 55 1011.7
20260503150204 14 288 0.0 4.8 0.00 0.00 0.00 56 1011.6
20260503140203 12 236 0.0 0.0 0.00 0.00 0.00 57 1012.3
20260503131204 11 0 0.0 0.0 0.00 0.00 0.00 58 1012.6
20260503130704 11 0 0.0 0.0 0.00 0.00 0.00 58 1012.7
20260503130204 11 0 0.0 0.0 0.00 0.00 0.00 59 1012.8
20260503120203 10 0 0.0 0.0 0.00 0.00 0.00 60 1012.5
20260503110204 9 0 0.0 0.0 0.00 0.00 0.00 60 1012.0
20260503100204 8 0 0.0 0.0 0.00 0.00 0.00 58 1012.3
20260503090203 8 0 0.0 0.0 0.00 0.00 0.00 58 1012.6
20260503080703 8 0 0.0 0.0 0.00 0.00 0.00 58 1013.0
20260503080204 8 0 0.0 0.0 0.00 0.00 0.00 57 1013.0